User: anonymous   Login
Location: Unspecified
(0.0000°N, 0.0000°E)
Time: 20:05:06
(UTC+00:00)
Language:

SR - Orbit

View from above orbital plane
View from above orbital plane
View from above satellite
View from above satellite

Ground track
Ground track

The orbit data is extracted from the following two-line orbital elements,

1 00046U 60007B   16206.72364653  .00000046  00000-0  32566-4 0  9990
2 00046  66.6914 292.5070 0203990 113.1520 249.1224 14.48906446932818
Epoch (UTC): 24 July 2016 17:22:03
Eccentricity: 0.0203990
inclination: 66.6914°
perigee height: 584 km
apogee height: 874 km
right ascension of ascending node: 292.5070°
argument of perigee: 113.1520°
revolutions per day: 14.48906446
mean anomaly at epoch: 249.1224°
orbit number at epoch: 93281

The dashed part of the orbit path shows where the satellite is in the earth's shadow,  

DLR